Date,TemperatureHighF,TemperatureAvgF,TemperatureLowF,DewpointHighF,DewpointAvgF,DewpointLowF,HumidityHigh,HumidityAvg,HumidityLow,PressureMaxIn,PressureMinIn,WindSpeedMaxMPH,WindSpeedAvgMPH,GustSpeedMaxMPH,PrecipitationSumIn
2013-1-1,40.8,22.5,17.1,31.1,11.7,6.6,78,63,48,30.04,29.90,15,5,15,0.00
2013-1-2,28.8,23.5,18.0,20.4,16.3,10.8,79,74,67,30.04,29.94,14,6,14,0.00
2013-1-3,39.4,24.2,15.8,33.7,18.3,-49.4,84,78,68,30.03,29.91,18,10,18,0.00
2013-1-4,39.4,28.7,25.9,33.7,21.3,19.2,84,74,66,30.05,29.87,30,19,30,0.00
2013-1-5,35.4,28.9,27.0,31.6,21.9,19.5,93,75,67,30.14,29.87,20,15,20,0.00
2013-1-6,36.3,34.4,31.6,33.7,30.3,24.0,93,85,73,30.13,29.77,27,11,27,0.00
2013-1-7,37.2,31.5,27.0,26.1,23.0,19.9,76,71,60,30.22,29.99,37,13,37,0.00
2013-1-8,40.5,31.3,25.5,29.8,24.1,20.1,83,75,63,30.10,30.00,17,8,17,0.00
2013-1-9,46.2,38.4,29.7,34.7,29.1,24.3,85,70,48,30.29,29.88,45,16,45,1.12
2013-1-10,46.6,34.1,23.7,34.2,27.2,21.0,92,77,54,30.44,30.00,15,6,15,0.05
2013-1-11,56.8,45.6,36.3,53.8,43.0,32.8,99,91,78,30.01,29.61,26,12,26,0.43
2013-1-12,61.5,52.5,46.2,50.3,44.9,31.1,93,76,50,29.82,29.68,25,11,25,0.01
2013-1-13,45.9,36.5,28.0,38.9,35.8,25.8,99,97,68,29.92,29.68,25,8,25,0.56
2013-1-14,28.0,22.8,16.2,25.8,17.3,11.6,91,79,68,30.30,29.92,26,8,26,0.00
2013-1-15,31.3,21.5,10.8,23.3,15.9,7.9,92,80,65,30.31,30.07,11,2,11,0.00
2013-1-16,34.5,31.8,18.0,30.3,24.3,15.3,90,75,53,30.03,29.66,18,8,27,0.01
2013-1-17,35.1,22.6,9.5,23.0,12.6,2.9,83,66,46,30.28,30.01,9,3,16,0.00
2013-1-18,36.5,33.7,15.6,23.5,21.3,11.4,83,61,53,30.27,29.79,68,21,68,0.00
2013-1-19,47.5,41.6,36.5,36.1,31.1,23.5,76,66,58,29.79,29.43,37,20,37,0.02
2013-1-20,45.9,21.5,14.9,32.7,8.0,1.1,72,56,46,30.05,29.42,47,17,47,5.39
2013-1-21,17.6,12.2,2.1,9.2,2.0,-7.6,77,63,48,30.01,29.83,21,8,21,0.00
2013-1-22,11.8,4.2,-4.2,-0.7,-6.5,-14.8,71,61,49,30.13,29.97,20,7,20,0.00
2013-1-23,19.4,10.3,-1.3,10.0,1.9,-9.1,79,68,61,30.13,29.92,20,8,20,0.00
2013-1-24,33.8,11.5,5.5,15.2,0.8,-4.9,81,63,43,30.45,29.98,17,5,17,0.00
2013-1-25,25.9,18.1,10.9,15.6,9.8,0.5,81,70,62,30.35,29.86,15,6,15,0.00
2013-1-26,29.1,22.0,16.3,17.0,13.7,8.2,83,71,53,30.30,29.89,13,4,13,0.00
2013-1-27,31.1,24.7,16.9,28.2,16.2,9.7,89,71,56,30.32,29.97,17,8,17,0.00
2013-1-28,45.0,38.1,31.1,40.4,33.7,28.0,99,85,74,29.99,29.72,21,6,21,0.18
2013-1-29,58.6,48.0,33.3,58.4,43.3,25.2,99,84,64,29.89,29.31,33,12,33,0.34
2013-1-30,59.0,48.7,30.2,58.5,47.7,20.3,99,96,65,29.33,28.99,43,11,43,0.66
2013-1-31,44.2,23.7,15.6,37.5,16.9,8.6,87,75,44,29.75,29.15,36,18,36,1.10